• In Romania
  • List of Countries
  • For 7 days
  • Water Temperature
  • Satellite Maps
  • Weather Map
  • Weather Widgets
  • user-avatar
    Login

    Hourly Weather Pula

    Today, 25 September, Tuesday

    Time Temperature Precipitation Wind Pressure Humidity
    00:00 +14°C° 0 mm 11 mps 764 mmHg 44%
    01:00 +14°C° 0 mm 11 mps 764 mmHg 43%
    02:00 +13°C° 0 mm 11 mps 764 mmHg 44%
    03:00 +13°C° 0 mm 11 mps 764 mmHg 45%
    04:00 +13°C° 0 mm 10 mps 764 mmHg 46%
    05:00 +13°C° 0 mm 10 mps 765 mmHg 47%
    06:00 +13°C° 0 mm 10 mps 765 mmHg 49%
    07:00 +13°C° 0 mm 10 mps 765 mmHg 51%
    08:00 +15°C° 0 mm 9 mps 765 mmHg 48%
    09:00 +16°C° 0 mm 9 mps 766 mmHg 44%
    10:00 +17°C° 0 mm 8 mps 766 mmHg 41%
    11:00 +17°C° 0 mm 8 mps 766 mmHg 41%
    12:00 +18°C° 0 mm 8 mps 766 mmHg 40%
    13:00 +18°C° 0 mm 7 mps 766 mmHg 39%
    14:00 +18°C° 0 mm 7 mps 766 mmHg 40%
    15:00 +18°C° 0 mm 7 mps 766 mmHg 40%
    16:00 +18°C° 0 mm 7 mps 766 mmHg 41%
    17:00 +17°C° 0 mm 8 mps 766 mmHg 42%
    18:00 +16°C° 0 mm 8 mps 767 mmHg 43%
    19:00 +15°C° 0 mm 9 mps 767 mmHg 44%
    20:00 +13°C° 0 mm 9 mps 768 mmHg 44%
    21:00 +13°C° 0 mm 9 mps 768 mmHg 44%
    22:00 +13°C° 0 mm 10 mps 769 mmHg 44%
    23:00 +12°C° 0 mm 10 mps 769 mmHg 44%

    Tomorrow, 26 September, Wednesday

    Time Temperature Precipitation Wind Pressure Humidity
    00:00 +12°C° 0 mm 10 mps 769 mmHg 44%
    01:00 +12°C° 0 mm 10 mps 770 mmHg 45%
    02:00 +11°C° 0 mm 10 mps 770 mmHg 46%
    03:00 +11°C° 0 mm 9 mps 769 mmHg 48%
    04:00 +11°C° 0 mm 9 mps 769 mmHg 49%
    05:00 +11°C° 0 mm 8 mps 769 mmHg 51%
    06:00 +10°C° 0 mm 8 mps 769 mmHg 52%
    07:00 +10°C° 0 mm 7 mps 770 mmHg 54%
    08:00 +12°C° 0 mm 7 mps 770 mmHg 50%
    09:00 +14°C° 0 mm 6 mps 770 mmHg 45%
    10:00 +15°C° 0 mm 6 mps 770 mmHg 41%
    11:00 +16°C° 0 mm 5 mps 769 mmHg 38%
    12:00 +17°C° 0 mm 5 mps 769 mmHg 35%
    13:00 +20°C° 0 mm 4 mps 769 mmHg 32%
    14:00 +20°C° 0 mm 4 mps 768 mmHg 32%
    15:00 +20°C° 0 mm 3 mps 768 mmHg 32%
    16:00 +20°C° 0 mm 3 mps 767 mmHg 33%
    17:00 +18°C° 0 mm 3 mps 767 mmHg 37%
    18:00 +17°C° 0 mm 3 mps 767 mmHg 41%
    19:00 +16°C° 0 mm 3 mps 768 mmHg 45%
    20:00 +14°C° 0 mm 3 mps 768 mmHg 49%
    21:00 +14°C° 0 mm 3 mps 768 mmHg 53%
    22:00 +14°C° 0 mm 3 mps 768 mmHg 58%
    23:00 +13°C° 0 mm 3 mps 768 mmHg 58%

    Day after tomorrow, 27 September, Thursday

    Time Temperature Precipitation Wind Pressure Humidity
    00:00 +13°C° 0 mm 3 mps 768 mmHg 58%
    01:00 +13°C° 0 mm 3 mps 767 mmHg 59%
    02:00 +13°C° 0 mm 3 mps 767 mmHg 58%
    03:00 +13°C° 0 mm 4 mps 767 mmHg 57%
    04:00 +13°C° 0 mm 4 mps 766 mmHg 56%
    05:00 +13°C° 0 mm 4 mps 766 mmHg 55%
    06:00 +14°C° 0 mm 4 mps 766 mmHg 54%
    07:00 +14°C° 0 mm 4 mps 766 mmHg 53%
    08:00 +17°C° 0 mm 4 mps 766 mmHg 45%
    09:00 +20°C° 0 mm 4 mps 765 mmHg 38%
    10:00 +22°C° 0 mm 4 mps 765 mmHg 31%
    11:00 +23°C° 0 mm 4 mps 765 mmHg 29%
    12:00 +26°C° 0 mm 4 mps 764 mmHg 26%
    13:00 +27°C° 0 mm 4 mps 764 mmHg 24%
    14:00 +27°C° 0 mm 4 mps 763 mmHg 27%
    15:00 +26°C° 0 mm 4 mps 763 mmHg 30%
    16:00 +26°C° 0 mm 4 mps 762 mmHg 33%
    17:00 +23°C° 0 mm 4 mps 762 mmHg 37%
    18:00 +21°C° 0 mm 4 mps 762 mmHg 42%
    19:00 +20°C° 0 mm 4 mps 762 mmHg 46%
    20:00 +19°C° 0 mm 4 mps 762 mmHg 46%
    21:00 +19°C° 0 mm 5 mps 761 mmHg 46%
    22:00 +17°C° 0 mm 5 mps 761 mmHg 47%
    23:00 +17°C° 0 mm 5 mps 761 mmHg 45%

    28 September, Friday

    Time Temperature Precipitation Wind Pressure Humidity
    00:00 +17°C° 0 mm 5 mps 760 mmHg 44%
    01:00 +17°C° 0 mm 5 mps 760 mmHg 43%
    02:00 +18°C° 0 mm 4 mps 759 mmHg 43%
    03:00 +18°C° 0 mm 4 mps 759 mmHg 44%
    04:00 +18°C° 0 mm 4 mps 758 mmHg 45%
    05:00 +18°C° 0 mm 4 mps 758 mmHg 46%
    06:00 +18°C° 0 mm 4 mps 758 mmHg 47%
    07:00 +18°C° 0 mm 4 mps 758 mmHg 49%
    08:00 +20°C° 0 mm 4 mps 758 mmHg 43%
    09:00 +22°C° 0 mm 4 mps 757 mmHg 38%
    10:00 +25°C° 0 mm 4 mps 757 mmHg 33%
    11:00 +26°C° 0 mm 4 mps 757 mmHg 32%
    12:00 +27°C° 0 mm 4 mps 756 mmHg 31%
    13:00 +28°C° 0 mm 4 mps 756 mmHg 31%
    14:00 +28°C° 0 mm 4 mps 755 mmHg 33%
    15:00 +27°C° 0 mm 4 mps 755 mmHg 35%
    16:00 +27°C° 0 mm 3 mps 754 mmHg 38%
    17:00 +25°C° 0 mm 3 mps 755 mmHg 42%
    18:00 +23°C° 0 mm 4 mps 755 mmHg 47%
    19:00 +21°C° 0 mm 4 mps 755 mmHg 51%
    20:00 +21°C° 0 mm 4 mps 755 mmHg 51%
    21:00 +20°C° 0 mm 4 mps 755 mmHg 51%
    22:00 +20°C° 0 mm 4 mps 755 mmHg 51%
    23:00 +20°C° 0 mm 4 mps 755 mmHg 51%

    29 September, Saturday

    Time Temperature Precipitation Wind Pressure Humidity
    00:00 +20°C° 0 mm 4 mps 755 mmHg 52%
    01:00 +19°C° 0 mm 3 mps 755 mmHg 52%
    02:00 +19°C° 0 mm 3 mps 755 mmHg 53%
    03:00 +19°C° 0 mm 3 mps 754 mmHg 54%
    04:00 +19°C° 0 mm 3 mps 754 mmHg 54%
    05:00 +19°C° 0 mm 4 mps 755 mmHg 53%
    06:00 +19°C° 0 mm 4 mps 755 mmHg 53%
    07:00 +20°C° 0 mm 4 mps 755 mmHg 52%
    08:00 +21°C° 0 mm 5 mps 755 mmHg 48%
    09:00 +22°C° 0 mm 5 mps 755 mmHg 45%
    10:00 +23°C° 0 mm 6 mps 755 mmHg 42%
    11:00 +23°C° 0 mm 6 mps 755 mmHg 42%
    12:00 +24°C° 0 mm 6 mps 755 mmHg 43%
    13:00 +24°C° 0 mm 6 mps 755 mmHg 43%
    14:00 +24°C° 0 mm 6 mps 755 mmHg 46%
    15:00 +23°C° 0 mm 6 mps 755 mmHg 48%
    16:00 +23°C° 0 mm 7 mps 755 mmHg 51%
    17:00 +22°C° 0 mm 7 mps 756 mmHg 53%
    18:00 +21°C° 0 mm 8 mps 756 mmHg 56%
    19:00 +20°C° 0 mm 8 mps 756 mmHg 58%
    20:00 +18°C° 0 mm 8 mps 757 mmHg 57%
    21:00 +18°C° 0 mm 9 mps 757 mmHg 56%
    22:00 +18°C° 0 mm 9 mps 757 mmHg 55%
    23:00 +17°C° 0 mm 9 mps 757 mmHg 54%

    30 September, Sunday

    Time Temperature Precipitation Wind Pressure Humidity
    00:00 +17°C° 0 mm 8 mps 757 mmHg 53%
    01:00 +16°C° 0 mm 8 mps 757 mmHg 51%
    02:00 +16°C° 0 mm 7 mps 757 mmHg 52%
    03:00 +16°C° 0 mm 7 mps 757 mmHg 53%
    04:00 +15°C° 0 mm 6 mps 757 mmHg 53%
    05:00 +15°C° 0 mm 5 mps 757 mmHg 54%
    06:00 +15°C° 0 mm 5 mps 757 mmHg 56%
    07:00 +15°C° 0 mm 5 mps 757 mmHg 57%
    08:00 +18°C° 0 mm 4 mps 757 mmHg 53%
    09:00 +19°C° 0 mm 4 mps 758 mmHg 49%
    10:00 +21°C° 0 mm 3 mps 758 mmHg 46%
    11:00 +22°C° 0 mm 3 mps 757 mmHg 43%
    12:00 +24°C° 0 mm 2 mps 757 mmHg 41%
    13:00 +25°C° 0 mm 2 mps 757 mmHg 39%
    14:00 +25°C° 0 mm 2 mps 757 mmHg 40%
    15:00 +24°C° 0 mm 2 mps 756 mmHg 41%
    16:00 +24°C° 0 mm 2 mps 756 mmHg 43%
    17:00 +22°C° 0 mm 1 mps 756 mmHg 47%
    18:00 +21°C° 0 mm 1 mps 757 mmHg 51%
    19:00 +19°C° 0 mm 1 mps 757 mmHg 56%
    20:00 +19°C° 0 mm 1 mps 757 mmHg 58%
    21:00 +19°C° 0 mm 1 mps 757 mmHg 61%
    22:00 +18°C° 0 mm 2 mps 757 mmHg 63%
    23:00 +18°C° 0 mm 2 mps 757 mmHg 66%
    Show more